Other Public Products
Issued by NWS Grand Forks, ND

Home | Current Version | Previous Version | Graphics & Text | Print | Product List | Glossary On
Versions: 1 2 3 4 5 6 7 8 9 10 11 12 13 14 15 16 17 18 19 20 21 22 23 24 25 26 27 28 29 30 31 32 33 34 35 36 37 38 39 40 41 42 43 44 45 46 47 48 49 50
000
FPUS83 KFGF 231831
OPUFGF
PRAIRIE TO PINES WEATHER ROUNDUP
NATIONAL WEATHER SERVICE EASTERN NORTH DAKOTA/GRAND FORKS ND
100 PM CDT WED AUG 23 2017

 **SATELLITE DATA USED TO AUGMENT SKY COVER AT AUTOMATED STATIONS**
 *****  WEATHER ACROSS EASTERN NORTH DAKOTA  *****

CITY           SKY/WX    TMP DP  RH WIND       PRES   REMARKS
GRAND FORKS    PTSUNNY   71  51  49 SE9       30.06F
6HR MIN TEMP:  50; 6HR MAX TEMP:  72;

GRAND FORKS AF PTSUNNY   70  49  48 SE6       30.07F
GRAND CITY NWS NOT AVBL
BUXTON           N/A     75  51  42 E5          N/A
DEVILS LAKE    NOT AVBL
FARGO          FAIR      74  51  44 VRB5      30.06F
6HR MIN TEMP:  46; 6HR MAX TEMP:  74;

WAHPETON ARPT  FAIR      72  46  40 SE5       30.08F
$$

 *****  WEATHER ACROSS CENTRAL AND WESTERN NORTH DAKOTA  *****

CITY           SKY/WX    TMP DP  RH WIND       PRES   REMARKS
JAMESTOWN      FAIR      76  52  43 S7        30.04F
6HR MIN TEMP:  47; 6HR MAX TEMP:  76;

BISMARCK       FAIR      79  54  41 S6        30.02F
6HR MIN TEMP:  49; 6HR MAX TEMP:  79;

MINOT          FAIR      83  49  30 SW15      29.98F
6HR MIN TEMP:  58; 6HR MAX TEMP:  83;

MINOT AFB      FAIR      83  49  29 W9G17     29.96F
6HR MIN TEMP:  51; 6HR MAX TEMP:  84; 6HR PCP: TRACE;

GARRISON         N/A     79  52  38 SW8       30.01F
6HR MIN TEMP:  51; 6HR MAX TEMP:  79;

WILLISTON      FAIR      84  49  29 SW10      29.99F
6HR MIN TEMP:  53; 6HR MAX TEMP:  84;

DICKINSON      FAIR      81  51  35 S9        30.01F
6HR MIN TEMP:  52; 6HR MAX TEMP:  81;

HETTINGER      FAIR      78  52  40 SE8       30.04F
6HR MIN TEMP:  53; 6HR MAX TEMP:  78;

$$

 *****  OTHER OBSERVATIONS NORTHEAST NORTH DAKOTA  *****

CITY           SKY/WX    TMP DP  RH WIND       PRES   REMARKS
WALHALLA       FAIR      66  66 100 E14       30.05F
LANGDON        FAIR      70  54  56 SE16      30.06F
CAVALIER       MOCLDY    64  54  68 E9        30.07F
GRAFTON        FAIR      68  54  60 E8        30.09F
CANDO          FAIR      77  52  41 S9G16     30.04F
FORT TOTTEN      N/A     75  49  39 S5        29.95S
ROLLA          FAIR      75  46  35 S10G16    30.01F
RUGBY          FAIR      75  50  41 S6        30.00F
 ***** THE ABOVE OBSERVATIONS ARE NON NWS ARE NOT QUALITY
        CONTROLLED AND MAY MIS-REPORT RAIN FOR SNOW...
$$

 *****  OTHER OBSERVATIONS SOUTHEAST NORTH DAKOTA *****

CITY           SKY/WX    TMP DP  RH WIND       PRES   REMARKS
COOPERSTOWN    FAIR      75  50  41 SW7       30.06S
VALLEY CITY      N/A     75  52  43 MISG      30.06F
OAKES          NOT AVBL
GWINNER        CLEAR     75  54  46 SE3       30.06F
SHEYENNE NWR     N/A     76  51  40 S7        29.95S
BUFFALO          N/A     74  45  34 N6          N/A
WYNDMERE       NOT AVBL
 ***** THE ABOVE OBSERVATIONS ARE NON NWS ARE NOT QUALITY
       CONTROLLED AND MAY MIS-REPORT RAIN FOR SNOW...
$$

  *****  WEATHER ACROSS NORTHERN MINNESOTA  *****

CITY           SKY/WX    TMP DP  RH WIND       PRES   REMARKS
FLAG ISLAND    FAIR      61  45  55 CALM      30.10F
WARROAD        FAIR      63  54  72 NE3       30.11F
ROSEAU         FAIR      63  54  72 NE3       30.11F
HALLOCK        PTSUNNY   64  54  68 E6        30.09S
THF RVR FALLS  FAIR      69  49  48 NE9       30.10F
6HR MIN TEMP:  46; 6HR MAX TEMP:  69; 6HR PCP: TRACE;

HALSTAD          N/A     73  48  41 E2          N/A
FOSSTON        FAIR      70  55  60 SE3       30.09F
BAUDETTE       CLOUDY    61  52  72 N7        30.11F
6HR MIN TEMP:  43; 6HR MAX TEMP:  62;

WASKISH        CLOUDY    63  54  72 SW7       30.11F
CROOKSTON      FAIR      72  50  46 E3        30.08F
$$
  *****  WEATHER ACROSS CENTRAL AND WEST MINNESOTA  *****

CITY           SKY/WX    TMP DP  RH WIND       PRES   REMARKS
BEMIDJI        FAIR      66  50  55 N5        30.09F
PARK RAPIDS    FAIR      70  49  47 N7        30.09F
6HR MIN TEMP:  46; 6HR MAX TEMP:  71;

WADENA         FAIR      70  52  52 W6        30.09F
DETROIT LAKES  FAIR      70  50  49 N3        30.10F
MOORHEAD       FAIR      73  48  40 CALM      30.07F
FERGUS FALLS   FAIR      72  52  49 CALM      30.08F
ELBOW LAKE     FAIR      72  53  50 SE3       30.10F HAZE
MORRIS MN      FAIR      73  48  40 CALM      30.08F
STAPLES        FAIR      72  46  40 N3        30.09F
WHEATON        FAIR      73  52  46 S7        30.09F
$$
  *****  WEATHER ELSEWHERE ACROSS MINNESOTA  *****

CITY           SKY/WX    TMP DP  RH WIND       PRES   REMARKS
DULUTH         PTSUNNY   63  47  55 N8        30.08F
6HR MIN TEMP:  50; 6HR MAX TEMP:  63;

INTRNTL FALLS  FAIR      63  47  55 N6        30.10F
6HR MIN TEMP:  48; 6HR MAX TEMP:  64;

ELY            FAIR      61  43  51 NW8       30.09F
CLOQUET        PTSUNNY   64  45  48 N8        30.09F
BRAINERD       FAIR      67  51  56 E5        30.10F
6HR MIN TEMP:  47; 6HR MAX TEMP:  67;

HIBBING        PTSUNNY   61  45  55 NW10      30.09F
6HR MIN TEMP:  44; 6HR MAX TEMP:  63;

ALEXANDRIA     FAIR      71  50  47 CALM      30.12F
6HR MIN TEMP:  52; 6HR MAX TEMP:  73;

SAINT CLOUD    FAIR      71  53  52 VRB6      30.10F
6HR MIN TEMP:  48; 6HR MAX TEMP:  71;

MINNEAPOLIS    FAIR      73  52  47 NW10      30.09F
6HR MIN TEMP:  57; 6HR MAX TEMP:  73;

$$

  *****  WEATHER ACROSS SOUTH DAKOTA  *****

CITY           SKY/WX    TMP DP  RH WIND       PRES   REMARKS
SIOUX FALLS    FAIR      78  57  48 S8        30.10F
6HR MIN TEMP:  51; 6HR MAX TEMP:  78;

BROOKINGS      FAIR      74  53  48 SW8       30.10F
WATERTOWN      FAIR      74  51  44 S9        30.08F
6HR MIN TEMP:  48; 6HR MAX TEMP:  74;

HURON          FAIR      78  57  48 S17       30.03F
6HR MIN TEMP:  51; 6HR MAX TEMP:  78;

SISSETON         N/A     75  54  47 VRB6      30.06F
ABERDEEN       FAIR      78  51  38 SE10      30.04F
6HR MIN TEMP:  42; 6HR MAX TEMP:  78;

MITCHELL       FAIR      80  59  48 S9G20     30.04F
PIERRE         FAIR      78  56  46 VRB6      29.98F
6HR MIN TEMP:  58; 6HR MAX TEMP:  78;

MOBRIDGE       FAIR      80  58  46 SE10G20   29.98F
RAPID CITY     FAIR      82  52  35 N6        30.03F
6HR MIN TEMP:  51; 6HR MAX TEMP:  82;

$$

  *****  SOME WEATHER IN NEARBY STATES *****

CITY           SKY/WX    TMP DP  RH WIND       PRES   REMARKS
GLASGOW MT     FAIR      83  46  27 SE7       29.96F
6HR MIN TEMP:  57; 6HR MAX TEMP:  83;

GREAT FALLS MT FAIR      84  33  16 VRB5      30.02F
6HR MIN TEMP:  50; 6HR MAX TEMP:  85;

CHEYENNE WY    FAIR      84  35  17 VRB7      30.21F
6HR MIN TEMP:  56; 6HR MAX TEMP:  84;

SCOTTSBLUFF NE FAIR      78  59  51 SE8       30.09F
6HR MIN TEMP:  55; 6HR MAX TEMP:  78;

OMAHA NE       FAIR      77  52  41 S5        30.14F
6HR MIN TEMP:  58; 6HR MAX TEMP:  78;

DES MOINES IA  FAIR      78  49  35 W8        30.13F
6HR MIN TEMP:  55; 6HR MAX TEMP:  78;

DAVENPORT IA   FAIR      75  49  39 NW10G18   30.11F
6HR MIN TEMP:  52; 6HR MAX TEMP:  75;

CHICAGO IL     FAIR      74  50  42 NW15G21   30.03F
6HR MIN TEMP:  61; 6HR MAX TEMP:  77;

EAU CLAIRE WI  FAIR      70  50  49 NW7       30.07F
6HR MIN TEMP:  52; 6HR MAX TEMP:  70;

LA CROSSE WI   FAIR      75  53  46 NW8       30.07F
6HR MIN TEMP:  56; 6HR MAX TEMP:  76;

$$

  *****  SOME NATIONAL WEATHER *****

CITY           SKY/WX    TMP DP  RH WIND       PRES   REMARKS
LA GUARDIA NY  PTSUNNY   80  54  40 N10       29.83S
6HR MIN TEMP:  74; 6HR MAX TEMP:  81;

RALEIGH NC     FAIR      93  71  48 S3        29.85F HX 100



USA.gov is the U.S. government's official web portal to all federal, state and local government web resources and services.